DELTA 1 R/B(2), 1318

Orbit data source: Space-Track

DELTA 1 R/B(2), 1318 is space debris in HEO originally from a launch on Tue, 06 Apr 1965 UTC launched from the Air Force Eastern Test Range (AFETR). Debris objects in space refer to the collection of defunct objects orbiting the Earth. Examples of debris include non-operational satellites, rocket bodies, and fragments generated from explosions, collisions, or faulty payload assembly.

Loading next visibility...
Identifier
1318, 1965-028B
Orbit
HEO
Country
Flag of USUS
Related business
Manufacturer
ABL
Mission
Spacecraft
Bus & Motor
ALTAIR, Unknown motor
Mass
33 kg wet, 33 kg dry
Launch date (UTC)
1965-04-06 (61 years ago)
Launch vehicle
Unknown
Launch site
Air Force Eastern Test Range (AFETR)
Object type
Payload
Rocket body
Debris
Shape & HBR
Unknown
Radar Cross Section
Medium (>0.1 m² and <1 m²)

Expand to show TLE details & history
Last TLE update: 1 day ago

TLE from 1 day ago
0 DELTA 1 R/B(2)
1 01318U 65028B   25353.12737769 -.00000039  00000-0  00000-0 0  9997
2 01318  17.9679 315.1595 6932622  59.6341  39.3050  2.11821460103516
Epoch: 2025-12-19T03:03Z
TLE epoch observation values (Epoch: 2025-12-19T03:03:25.432Z)
Latitude
-1.2754°
Longitude
5.26709°
Altitude
15,519.554 km
Speed
4.565 km/s
True Right ascension
09h 16m 23s
True Declination
-1° 16' 22"
Sunlit
Object was in daylight at epoch
Visualization orbit readout
Latitude
Unknown
Longitude
Unknown
Altitude
Unknown
Speed
Unknown
Apparent Right ascension
Unknown
Apparent Declination
Unknown
Sunlit
N/A
Visualization observer readout
Local Sidereal Time
03:43:05
Azimuth
Unknown
Elevation
Unknown
Doppler factor
Unknown
Orbital elements
Apogee altitude
36,994.231 km
Perigee altitude
1,478.853 km
Semi-major axis
25,614.679 km
Eccentricity
0.69326
Inclination
17.9679°
RAAN
315.1595°
Arg. of periapsis
59.6341°
True anomaly
124.70255°
Mean anomaly
39.305°
Eccentric anomaly
78.18437°
Mean motion
0.52943 °/min
Orbital period
679.97 mins
BSTAR
0
Loading maneuver chart data...
Computing Atmospheric mass density...
Loading historical data...
Loading historical data...
Loading historical data...
Loading historical data...
Loading historical data...
Loading historical data...
Loading historical data...
Other satellites on launch #28 in the year 1965 (1965-04-06 UTC)

Documentation

Showing up to 5 results
|